Regional Weather Roundup
Issued by NWS

Home | Current Version | Previous Version | Text Only | Print | Product List | Glossary Off
Versions: 1 2 3 4 5 6 7 8 9 10 11 12 13 14 15 16 17 18 19 20 21 22 23 24 25 26 27 28 29 30 31 32 33 34 35 36 37 38 39 40 41 42 43 44 45 46 47 48 49 50

000
ASUS43 KFSD 231002
RWRSD

WEATHER ROUNDUP FOR SOUTH DAKOTA
NATIONAL WEATHER SERVICE SIOUX FALLS SD
500 AM CDT FRI JUN 23 2017

NOTE: "FAIR" INDICATES FEW OR NO CLOUDS BELOW 12,000 FEET WITH NO
SIGNIFICANT WEATHER AND/OR OBSTRUCTIONS TO VISIBILITY.


SDZ001>005-009-010-012>017-231100-
NORTHWEST AND NORTH CENTRAL SOUTH DAKOTA

CITY           SKY/WX    TMP DP  RH WIND       PRES   REMARKS
BUFFALO          N/A     52  43  71 NW22G31   30.08S
FAITH            N/A     52  45  77 NW21G26   30.07S
MOBRIDGE       CLOUDY    59  48  67 NW25G33   29.96R
$$

SDZ012>016-024>037-041>051-057-063-072>074-231100-
SOUTHWEST AND SOUTH CENTRAL SOUTH DAKOTA

CITY           SKY/WX    TMP DP  RH WIND       PRES   REMARKS
RAPID CTY ARPT PTCLDY    54  38  54 NW12      30.15R
PIERRE         CLOUDY    56  47  71 W17       30.01R
CUSTER         CLOUDY    48  30  49 W13G25    30.21R
ELLSWORTH AFB  CLOUDY    54  39  57 NW22G29   30.13S
PHILIP         CLOUDY    55  44  66 NW14G22   30.08F
PINE RIDGE     LGT RAIN  53  49  86 N3        30.18R
SPEARFISH      MOCLDY    50  39  66 W20G26    30.20R
WINNER         FAIR      60  41  49 NW20G26   30.03R
$$

SDZ004>011-016>023-039-040-231100-
NORTHEAST SOUTH DAKOTA

CITY           SKY/WX    TMP DP  RH WIND       PRES   REMARKS
ABERDEEN       PTCLDY    56  47  71 W10       29.88S
WATERTOWN      CLEAR     57  48  72 NW16      29.85S
BROOKINGS      CLEAR     53  46  77 W8        29.87R
SISSETON         N/A     59  49  69 W14       29.80S
$$

SDZ017-020-022-023-036>040-048>070-231100-
SOUTHEAST SOUTH DAKOTA

CITY           SKY/WX    TMP DP  RH WIND       PRES   REMARKS
SIOUX FALLS    PTCLDY    56  47  71 NW10      29.88R
HURON          MOCLDY    55  47  74 NW15      29.91S
CHAMBERLAIN    CLOUDY    60  46  60 NW14G23   29.99R
MITCHELL       CLOUDY    57  44  62 NW13      29.93R
YANKTON        CLOUDY    60  46  59 NW15      29.92R
$$

ABBREVIATIONS USED IN REMARKS
   TC - TEMPERATURE IN CELSIUS
  WCI - WIND CHILL INDEX
   HX - HEAT INDEX
  VSB - VISIBILITY





USA.gov is the U.S. government's official web portal to all federal, state and local government web resources and services.